Weather History for KRDR - December, 2012

Change the Weather History Date:

Tuesday, December 11, 2012

  Actual Average Record
Temperature  
Mean Temperature 3 °F -  
Max Temperature 8 °F 25 °F 48 °F (2002)
Min Temperature -2 °F 9 °F -19 °F (2013)
Degree Days  
Heating Degree Days 62    
Moisture  
Dew Point -2 °F    
Average Humidity 74    
Maximum Humidity 79    
Minimum Humidity 62    
Precipitation  
Precipitation 0.00 in - - ()
Sea Level Pressure  
Sea Level Pressure 29.88 in    
Wind  
Wind Speed 9 mph (NNE)    
Max Wind Speed 13 mph    
Max Gust Speed -    
Visibility 10 miles    
Events Snow    
Averages and records for this station are not official NWS values.
T = Trace of Precipitation, MM = Missing Value Source: NWS Daily Summary

Daily Weather History Graph

Daily Weather History Graph

Search for Another Location

Airport or City:

Trip Planner

Search our weather history database for the weather conditions in past years. The results will help you decide how hot, cold, wet, or windy it might be!

Date:

Astronomy

Dec. 11, 2012 Rise Set
Actual Time 8:09 AM CST 4:36 PM CST
Civil Twilight 7:33 AM CST 5:12 PM CST
Nautical Twilight 6:54 AM CST 5:52 PM CST
Astronomical Twilight 6:16 AM CST 6:29 PM CST
Moon 6:01 AM CST (12/11) 3:20 PM CST (12/11)
Length of Visible Light 9h 39m
Length of Day
8h 26m
Waning Crescent, 4% of the Moon is Illuminated
Dec 11
Waning Crescent
Dec 13
New
Dec 19
First Quarter
Dec 28
Full
Jan 4
Last Quarter

Hourly Weather History & Observations

Time (CST) Temp. Windchill Dew Point Humidity Pressure Visibility Wind Dir Wind Speed Gust Speed Precip Events Conditions
12:55 AM 5.9 °F -7.0 °F 0.1 °F 77% 29.76 in 10.0 mi NW 8.1 mph - N/A   Clear
1:22 AM 5.0 °F -9.1 °F -0.4 °F 78% 29.77 in 10.0 mi NW 9.2 mph - N/A   Partly Cloudy
1:31 AM 5.0 °F -5.6 °F -0.4 °F 78% 29.77 in 10.0 mi NW 5.8 mph - N/A   Mostly Cloudy
1:40 AM 5.0 °F -8.1 °F -2.2 °F 72% 29.77 in 10.0 mi NW 8.1 mph - N/A   Scattered Clouds
1:55 AM 4.1 °F -11.1 °F -1.7 °F 77% 29.77 in 10.0 mi NW 10.4 mph - N/A   Scattered Clouds
2:55 AM 1.9 °F -11.8 °F -3.6 °F 77% 29.79 in 10.0 mi NNW 8.1 mph - N/A   Clear
3:03 AM 3.2 °F -12.2 °F -2.2 °F 78% 29.80 in 10.0 mi NW 10.4 mph - N/A   Mostly Cloudy
3:19 AM 3.2 °F -11.3 °F -2.2 °F 78% 29.80 in 10.0 mi NNW 9.2 mph - N/A   Overcast
3:24 AM 3.2 °F -12.2 °F -2.2 °F 78% 29.80 in 10.0 mi NNW 10.4 mph - N/A   Overcast
3:28 AM 3.2 °F -11.3 °F -2.2 °F 78% 29.80 in 10.0 mi NNW 9.2 mph - N/A Snow Light Snow
3:36 AM 5.0 °F -8.1 °F -0.4 °F 78% 29.80 in 10.0 mi NNW 8.1 mph - N/A   Overcast
3:55 AM 5.4 °F -8.6 °F -0.4 °F 77% 29.80 in 10.0 mi NNW 9.2 mph - 0.00 in   Overcast
4:22 AM 5.0 °F -8.1 °F -0.4 °F 78% 29.81 in 10.0 mi NNW 8.1 mph - N/A   Overcast
4:32 AM 6.8 °F -7.8 °F -0.4 °F 72% 29.81 in 10.0 mi NW 10.4 mph - N/A   Overcast
4:35 AM 6.8 °F -6.9 °F 1.4 °F 79% 29.81 in 10.0 mi NNW 9.2 mph - N/A Snow Light Snow
4:55 AM 6.8 °F -3.5 °F 1.6 °F 79% 29.81 in 10.0 mi NNW 5.8 mph - 0.00 in Snow Light Snow
5:03 AM 6.8 °F -4.8 °F 1.4 °F 79% 29.81 in 10.0 mi NNW 6.9 mph - N/A Snow Light Snow
5:11 AM 8.6 °F -4.7 °F 3.2 °F 79% 29.81 in 10.0 mi NNW 9.2 mph - N/A Snow Light Snow
5:14 AM 8.6 °F -6.3 °F 3.2 °F 79% 29.81 in 10.0 mi NNW 11.5 mph - N/A Snow Light Snow
5:55 AM 8.1 °F -7.7 °F 2.3 °F 77% 29.82 in 10.0 mi North 12.7 mph - 0.00 in Snow Light Snow
6:49 AM 8.6 °F -5.5 °F 1.4 °F 73% 29.85 in 10.0 mi NNW 10.4 mph - N/A Snow Light Snow
6:55 AM 7.9 °F -6.4 °F 1.9 °F 77% 29.84 in 10.0 mi NNW 10.4 mph - 0.00 in Snow Light Snow
7:10 AM 8.6 °F -7.0 °F 1.4 °F 73% 29.86 in 10.0 mi NNW 12.7 mph - N/A   Overcast
7:17 AM 8.6 °F -5.5 °F 1.4 °F 73% 29.86 in 10.0 mi NNW 10.4 mph - N/A Snow Light Snow
7:22 AM 6.8 °F -7.8 °F 1.4 °F 79% 29.86 in 10.0 mi NNW 10.4 mph - N/A Snow Light Snow
7:31 AM 6.8 °F -9.3 °F 1.4 °F 79% 29.86 in 10.0 mi North 12.7 mph - N/A Snow Light Snow
7:37 AM 6.8 °F -9.3 °F 1.4 °F 79% 29.86 in 10.0 mi North 12.7 mph - N/A   Overcast
7:43 AM 6.8 °F -7.8 °F 1.4 °F 79% 29.86 in 10.0 mi North 10.4 mph - N/A Snow Light Snow
7:44 AM 6.8 °F -7.8 °F 1.4 °F 79% 29.86 in 10.0 mi North 10.4 mph - N/A Snow Light Snow
7:50 AM 6.8 °F -5.9 °F 1.4 °F 79% 29.86 in 10.0 mi North 8.1 mph - N/A Snow Light Snow
7:55 AM 7.3 °F -8.6 °F 1.6 °F 77% 29.86 in 10.0 mi North 12.7 mph - 0.00 in Snow Light Snow
8:02 AM 6.8 °F -5.9 °F 1.4 °F 79% 29.87 in 10.0 mi NNW 8.1 mph - N/A   Overcast
8:07 AM 6.8 °F -6.9 °F 1.4 °F 79% 29.87 in 10.0 mi North 9.2 mph - N/A   Overcast
8:11 AM 6.8 °F -5.9 °F -0.4 °F 72% 29.87 in 10.0 mi North 8.1 mph - N/A   Overcast
8:26 AM 6.8 °F -7.8 °F -0.4 °F 72% 29.87 in 10.0 mi NNE 10.4 mph - N/A   Overcast
8:27 AM 6.8 °F -7.8 °F -0.4 °F 72% 29.87 in 10.0 mi North 10.4 mph - N/A Snow Light Snow
8:37 AM 6.8 °F -8.6 °F -0.4 °F 72% 29.88 in 10.0 mi North 11.5 mph - N/A Snow Light Snow
8:44 AM 6.8 °F -5.9 °F -0.4 °F 72% 29.87 in 10.0 mi North 8.1 mph - N/A   Overcast
8:46 AM 6.8 °F -5.9 °F -0.4 °F 72% 29.88 in 10.0 mi North 8.1 mph - N/A Snow Light Snow
8:55 AM 6.4 °F -5.2 °F -0.2 °F 74% 29.88 in 10.0 mi North 6.9 mph - 0.00 in Snow Light Snow
9:06 AM 6.8 °F -7.8 °F -0.4 °F 72% 29.89 in 10.0 mi North 10.4 mph - N/A Snow Light Snow
9:10 AM 6.8 °F -6.9 °F -0.4 °F 72% 29.89 in 10.0 mi North 9.2 mph - N/A Snow Light Snow
9:11 AM 6.8 °F -6.9 °F -0.4 °F 72% 29.89 in 10.0 mi North 9.2 mph - N/A   Overcast
9:19 AM 6.8 °F -7.8 °F -0.4 °F 72% 29.89 in 10.0 mi North 10.4 mph - N/A Snow Light Snow
9:32 AM 6.8 °F -6.9 °F -0.4 °F 72% 29.89 in 10.0 mi NNW 9.2 mph - N/A   Overcast
9:34 AM 6.8 °F -7.8 °F -0.4 °F 72% 29.89 in 10.0 mi North 10.4 mph - N/A   Overcast
9:36 AM 6.8 °F -6.9 °F -0.4 °F 72% 29.90 in 10.0 mi North 9.2 mph - N/A Snow Light Snow
9:41 AM 6.8 °F -6.9 °F 1.4 °F 79% 29.90 in 6.0 mi NNW 9.2 mph - N/A Snow Light Snow
9:50 AM 6.8 °F -7.8 °F 1.4 °F 79% 29.90 in 7.0 mi NNW 10.4 mph - N/A Snow Light Snow
9:55 AM 7.0 °F -6.6 °F 0.7 °F 75% 29.90 in 7.0 mi NNW 9.2 mph - 0.00 in Snow Light Snow
10:05 AM 6.8 °F -8.6 °F 1.4 °F 79% 29.91 in 6.0 mi NNW 11.5 mph - N/A Snow Light Snow
10:18 AM 6.8 °F -7.8 °F -0.4 °F 72% 29.90 in 8.0 mi North 10.4 mph - N/A Snow Light Snow
10:26 AM 6.8 °F -7.8 °F -0.4 °F 72% 29.91 in 10.0 mi North 10.4 mph - N/A Snow Light Snow
10:31 AM 6.8 °F -6.9 °F -0.4 °F 72% 29.91 in 10.0 mi North 9.2 mph - N/A Snow Light Snow
10:41 AM 6.8 °F -8.6 °F -0.4 °F 72% 29.90 in 4.0 mi NE 11.5 mph - N/A Snow Light Snow
10:47 AM 5.0 °F -10.0 °F -0.4 °F 78% 29.91 in 3.0 mi NE 10.4 mph - N/A Snow Light Snow
10:51 AM 5.0 °F -10.0 °F -0.4 °F 78% 29.91 in 4.0 mi NNE 10.4 mph - N/A   Overcast
10:56 AM 5.0 °F -9.1 °F -2.2 °F 72% 29.91 in 5.0 mi NNE 9.2 mph - N/A   Overcast
11:03 AM 5.0 °F -10.0 °F -2.2 °F 72% 29.91 in 7.0 mi NNE 10.4 mph - N/A Snow Light Snow
11:11 AM 5.0 °F -11.6 °F -2.2 °F 72% 29.91 in 10.0 mi NNE 12.7 mph - N/A   Overcast
11:27 AM 5.0 °F -10.0 °F -4.0 °F 66% 29.92 in 10.0 mi North 10.4 mph - N/A   Overcast
11:55 AM 4.5 °F -10.7 °F -4.7 °F 66% 29.92 in 10.0 mi North 10.4 mph - 0.00 in   Mostly Cloudy
12:55 PM 5.4 °F -3.6 °F -5.3 °F 62% 29.91 in 10.0 mi NNE 4.6 mph - N/A   Overcast
1:33 PM 5.0 °F -6.9 °F -4.0 °F 66% 29.92 in 10.0 mi NE 6.9 mph - N/A   Scattered Clouds
1:55 PM 5.2 °F -3.8 °F -4.5 °F 64% 29.92 in 10.0 mi NNE 4.6 mph - N/A   Clear
2:39 PM 5.0 °F -2.1 °F -4.0 °F 66% 29.92 in 10.0 mi NNW 3.5 mph - N/A   Mostly Cloudy
2:55 PM 5.2 °F -3.8 °F -4.4 °F 65% 29.92 in 10.0 mi NE 4.6 mph - N/A   Mostly Cloudy
3:31 PM 5.0 °F -4.1 °F -4.0 °F 66% 29.92 in 10.0 mi NE 4.6 mph - N/A   Scattered Clouds
3:34 PM 5.0 °F -4.1 °F -4.0 °F 66% 29.92 in 10.0 mi NE 4.6 mph - N/A   Scattered Clouds
3:55 PM 3.6 °F -3.8 °F -4.9 °F 68% 29.92 in 10.0 mi ENE 3.5 mph - N/A   Scattered Clouds
4:16 PM 1.4 °F -11.3 °F -4.0 °F 78% 29.92 in 10.0 mi East 6.9 mph - N/A   Mostly Cloudy
4:19 PM 1.4 °F -9.9 °F -5.8 °F 72% 29.92 in 10.0 mi East 5.8 mph - N/A   Mostly Cloudy
4:50 PM 1.4 °F -6.2 °F -5.8 °F 72% 29.93 in 10.0 mi East 3.5 mph - N/A   Overcast
4:55 PM 0.7 °F -9.1 °F -5.8 °F 74% 29.93 in 10.0 mi East 4.6 mph - N/A   Overcast
5:25 PM -0.4 °F -12.0 °F -5.8 °F 78% 29.94 in 10.0 mi East 5.8 mph - N/A   Overcast
5:34 PM -0.4 °F -10.4 °F -7.6 °F 72% 29.94 in 10.0 mi East 4.6 mph - N/A   Overcast
5:55 PM -0.9 °F -12.7 °F -7.4 °F 74% 29.94 in 10.0 mi East 5.8 mph - N/A   Mostly Cloudy
5:57 PM -0.4 °F -12.0 °F -7.6 °F 72% 29.94 in 10.0 mi East 5.8 mph - N/A   Scattered Clouds
6:24 PM -2.2 °F -14.2 °F -7.6 °F 78% 29.95 in 10.0 mi East 5.8 mph - N/A   Mostly Cloudy
6:27 PM -2.2 °F -14.2 °F -7.6 °F 78% 29.95 in 10.0 mi ENE 5.8 mph - N/A   Mostly Cloudy
6:48 PM -2.2 °F -14.2 °F -9.4 °F 71% 29.95 in 10.0 mi East 5.8 mph - N/A   Scattered Clouds
6:55 PM -2.4 °F -14.4 °F -8.5 °F 75% 29.95 in 10.0 mi ENE 5.8 mph - N/A   Scattered Clouds
6:57 PM -2.2 °F -12.5 °F -7.6 °F 78% 29.96 in 10.0 mi East 4.6 mph - N/A   Mostly Cloudy
7:17 PM -2.2 °F -14.2 °F -9.4 °F 71% 29.95 in 10.0 mi East 5.8 mph - N/A   Overcast
7:48 PM -0.4 °F -12.0 °F -7.6 °F 72% 29.94 in 10.0 mi East 5.8 mph - N/A   Overcast
7:55 PM -0.8 °F -12.5 °F -6.7 °F 76% 29.94 in 10.0 mi East 5.8 mph - N/A   Overcast
8:55 PM -0.8 °F -12.5 °F -6.3 °F 77% 29.94 in 10.0 mi ESE 5.8 mph - N/A   Scattered Clouds
9:55 PM 0.5 °F -14.6 °F -5.8 °F 75% 29.93 in 10.0 mi SE 9.2 mph - N/A   Overcast
10:55 PM 1.9 °F -12.9 °F -5.3 °F 72% 29.92 in 10.0 mi SSE 9.2 mph - N/A   Overcast
11:35 PM 3.2 °F -13.1 °F -4.0 °F 72% 29.92 in 10.0 mi SE 11.5 mph - N/A   Overcast
11:39 PM 3.2 °F -11.3 °F -4.0 °F 72% 29.91 in 10.0 mi SE 9.2 mph - N/A Snow Light Snow
11:48 PM 3.2 °F -12.2 °F -4.0 °F 72% 29.91 in 10.0 mi SE 10.4 mph - N/A   Overcast
11:51 PM 3.2 °F -13.9 °F -4.0 °F 72% 29.91 in 10.0 mi SE 12.7 mph - N/A   Overcast
11:56 PM 3.2 °F -12.2 °F -4.0 °F 72% 29.91 in 10.0 mi SE 10.4 mph - N/A   Overcast
11:59 PM 3.2 °F -13.1 °F -4.0 °F 72% 29.90 in 10.0 mi SE 11.5 mph - N/A   Overcast